Location: *
(41.2395°N, 22.9891°E)
Time: 11:16:41
(UTC+00:00)

Daily predictions for brighter satellites

Satellite Brightness Start Highest point End
(mag) Time Altitude Azimuth Time Altitude Azimuth Time Altitude Azimuth
NOSS 3-4 (A) 3.6 17:34:14 10° SW 17:39:26 66° NW 17:45:05 10° NNE
NOSS 3-4 (C) 3.6 17:34:45 10° SW 17:39:58 67° NW 17:45:39 10° NNE
SL-19 R/B 4.3 17:36:19 10° SSE 17:41:38 90° WSW 17:47:15 10° NNW
SPOT 5 3.0 17:43:23 10° SSE 17:47:44 48° ENE 17:51:57 10° N
CZ-4 R/B 2.2 17:45:00 10° SE 17:48:11 27° ENE 17:51:20 10° NNE
Gblst 52 Del rocket 4.4 17:46:57 10° SW 17:52:42 89° NW 17:59:13 10° NE
Cosmos 1821 Rocket 4.2 17:50:10 10° SSE 17:56:11 52° E 18:02:19 10° NNE
IRAS Rocket 4.4 17:51:49 10° SE 17:57:07 53° ENE 18:02:26 10° N
Cosmos 1733 Rocket 3.2 17:53:10 10° S 17:57:24 54° E 18:01:42 10° NNE
Terra 3.0 17:53:47 10° ESE 17:57:33 24° ENE 18:01:19 10° NNE
Meteor 2-15 4.4 17:52:40 10° S 17:58:41 70° E 18:04:45 10° NNE
CZ-4B R/B 4.1 17:56:10 10° SE 17:59:44 45° ENE 18:03:26 10° N
Cosmos 2237 Rocket 2.6 17:54:13 10° SSW 17:59:51 70° WNW 18:05:34 10° NNE
Cosmos 2242 Rocket 3.9 17:56:19 10° N 18:00:37 47° ENE 18:04:51 10° SSE
Cosmos 1980 4.3 17:56:16 10° SW 18:01:51 62° WNW 18:07:27 10° NNE
Cosmos 2218 Rocket 3.9 17:55:54 10° S 18:02:02 80° E 18:08:13 10° N
Helios 1A Rocket 2.8 17:59:07 10° NNE 18:02:06 35° E 18:05:03 10° SSE
SJ-6B 3.5 17:58:47 10° S 18:02:20 51° W 18:05:52 10° NNW
Resurs 01 Rocket 3.4 17:59:09 10° SSW 18:03:05 33° W 18:07:05 10° NNW
Meteor 1-21 Rocket 4.3 17:59:45 10° N 18:05:29 90° E 18:11:17 10° S
CSL-04 Rocket 3.7 18:00:49 10° SSE 18:06:19 72° ENE 18:11:51 10° N
Cosmos 1809 Rocket 4.5 18:04:19 10° N 18:10:32 83° E 18:16:43 10° S
Blok-2BL 4.1 18:08:36 10° SW 18:13:09 89° NW 18:18:35 10° NE
SL-24 R/B 4.4 18:12:45 10° NNE 18:18:07 77° E 18:22:51 10° S
USA 59 Rocket -0.1 18:15:03 10° NNW 18:18:36 67° NE 18:22:13 16° SE
OAO 3 Rocket 3.9 18:14:52 10° WSW 18:19:07 36° S 18:22:04 18° SE
Cosmos 1346 Rocket 3.6 18:16:05 10° NNE 18:19:14 28° ENE 18:20:54 20° ESE
Gbstr 26 Del rocket 4.2 18:15:35 10° S 18:20:17 28° SE 18:24:17 10° ENE
Cosmos 1943 Rocket 3.5 18:16:01 10° NW 18:21:12 38° WSW 18:26:20 10° S
Cosmos 1400 Rocket 2.5 18:17:49 10° S 18:21:25 86° W 18:25:02 10° N
SL-4 R/B 2.8 18:19:03 10° S 18:22:10 25° SE 18:23:54 18° E
Feng Yun 1-1 Rocket 4.3 18:17:19 10° SSE 18:22:44 62° ENE 18:28:04 10° N
TIMED 4.4 18:20:50 10° NNW 18:25:05 73° ENE 18:28:24 16° SSE
Meteor 1-31 Rocket 2.5 18:21:47 10° SSE 18:25:18 86° WSW 18:28:50 10° NNW
Cosmos 1812 1.0 18:28:43 44° SW 18:29:02 60° W 18:30:41 10° N
ADEOS 3.9 18:25:49 16° SE 18:29:41 48° ENE 18:34:41 10° N
Cosmos 2369 Rocket 3.3 18:25:28 10° N 18:30:17 29° NE 18:33:13 19° E
Cosmos 1869 4.4 18:32:16 20° E 18:32:16 20° E 18:34:48 10° NE
MOS 1 4.3 18:27:43 12° SSE 18:32:51 67° ENE 18:38:28 10° N
Cosmos 2285 Rocket 4.2 18:27:09 10° S 18:33:13 49° ESE 18:39:17 10° NNE
CBERS 1 LM4 rocket 4.4 18:29:52 16° SSE 18:33:28 61° ENE 18:38:11 10° N
Aureole 3 4.3 18:29:03 10° N 18:34:25 87° W 18:40:40 10° S
USA 234 3.2 18:28:30 10° NE 18:35:02 70° SE 18:41:33 10° SW
SL-08 R/B 3.6 18:32:56 10° NNE 18:37:43 49° E 18:42:25 10° S
Meteor 1-11 4.4 18:36:15 10° NNW 18:41:45 72° W 18:47:13 10° S
USA 186 3.7 18:43:56 11° NE 18:43:56 11° NE 18:44:05 10° NNE
Cosmos 1943 4.1 18:41:48 24° SE 18:43:17 27° ESE 18:47:56 10° NE
Cosmos 2221 Rocket 4.1 18:39:31 10° N 18:43:42 40° ENE 18:45:17 29° ESE
CZ-4B DEB 4.3 18:40:15 11° SSE 18:45:36 80° WSW 18:51:08 10° NNW
CZ-4B R/B 3.2 18:41:51 18° SSE 18:46:07 74° ENE 18:51:46 10° N
Cosmos 2278 Rocket 4.0 18:43:01 10° NW 18:47:48 29° WSW 18:52:34 10° SSW
SKYMED 3 4.1 18:44:51 10° NNE 18:48:44 78° ESE 18:52:22 12° S
SL-8 R/B 4.4 18:48:22 10° W 18:52:59 52° NNW 18:57:37 10° ENE
HBTSS-SV1 4.4 18:48:54 10° W 18:53:19 76° S 18:55:12 34° E
Cosmos 405 Rocket 4.5 18:51:42 10° NE 18:52:20 13° NE 18:52:20 13° NE
OAO 2 Rocket 3.9 18:49:40 10° WSW 18:54:30 42° S 18:56:05 32° SE
SL-24 R/B 4.4 18:50:45 10° N 18:55:21 72° WNW 18:59:34 10° SSW
ERS-1 Rocket 3.1 18:54:02 17° S 18:57:53 75° WSW 19:02:54 10° NNW
NOSS 2-1 (D) 3.8 18:54:22 10° NW 18:57:58 58° WSW 19:00:11 28° S
Cosmos 2292 Rocket 3.0 19:01:22 10° N 19:05:23 82° W 19:06:14 49° S
Cosmos 1674 Rocket 3.9 19:01:23 10° NNW 19:05:41 63° W 19:08:19 23° S
BREEZE-M DEB (TANK) 4.0 19:03:44 10° NW 19:05:51 25° NNE 19:06:41 22° NE
NOSS 2-1 (E) 3.6 19:02:33 10° NW 19:06:09 64° WSW 19:07:43 37° S
Cosmos 2298 Rocket 4.0 19:01:19 10° SSW 19:06:36 90° WSW 19:11:57 10° NNE
Okean-O 2.7 19:07:12 45° ESE 19:08:12 58° ENE 19:12:30 10° N
Cosmos 44 4.3 19:05:25 10° SW 19:10:17 50° NW 19:15:27 10° NNE
MetOp-B 4.4 19:07:32 20° S 19:11:16 66° WSW 19:16:37 10° NNW
Cosmos 1908 Rocket 3.5 19:08:44 21° SSW 19:11:37 79° W 19:15:57 10° N
IRS-1A Rocket 4.2 19:08:51 28° SSE 19:11:59 89° WSW 19:17:44 10° NNW
NOSS 2-1 (C) 4.1 19:08:35 10° NW 19:12:10 48° WSW 19:13:46 33° S
SL-08 R/B 4.4 19:06:43 10° S 19:12:51 87° W 19:19:00 10° N
Cosmos 1934 Rocket 3.9 19:10:21 18° S 19:15:07 77° E 19:21:19 10° N
Cosmos 1727 Rocket 4.5 19:09:19 10° NNW 19:15:32 60° W 19:21:03 13° S
SL-16 R/B 2.7 19:10:18 10° SW 19:15:53 61° WNW 19:21:31 10° NNE
CZ-4B R/B 4.2 19:15:34 31° ENE 19:15:56 32° ENE 19:20:07 10° N
Okean O Rocket 1.4 19:15:51 54° SE 19:16:45 76° ENE 19:21:04 10° N
Ariane Rocket 3.9 19:17:09 29° ENE 19:17:36 30° ENE 19:21:56 10° N
Cosmos 1782 Rocket 3.4 19:21:41 63° ESE 19:21:49 64° E 19:26:05 10° NNE
CZ-4 R/B 3.7 19:19:30 10° SW 19:22:11 19° W 19:24:51 10° NW
Geosat 4.0 19:17:55 10° NNE 19:22:56 78° WNW 19:27:54 10° SSW
Milstar 3 4.4 19:17:41 10° SSW 19:41:40 - E 19:24:34 29° SSE
Spot 2 Rocket 3.4 19:23:16 45° SSE 19:24:53 88° W 19:29:55 10° NNW
MOS 1-B 4.2 19:23:35 39° SSE 19:25:53 88° ENE 19:31:43 10° NNW
USA 245 4.0 19:28:49 53° E 19:29:18 56° ENE 19:34:36 10° N
ATLAS 5 CENTAUR R/B 4.0 19:29:34 10° NNE 19:31:02 11° NE 19:31:56 11° NE
NOSS 3-1 (C) 4.1 19:24:57 10° NNW 19:32:12 71° NE 19:35:43 39° SE
Cosmos 1140 Rocket 3.8 19:27:34 10° N 19:32:31 46° ENE 19:32:51 46° ENE
Cosmos 1025 Rocket 4.4 19:30:35 10° NNW 19:34:27 34° W 19:36:26 22° SW
Terra 3.1 19:32:10 19° SSW 19:34:52 34° W 19:39:10 10° NNW
Cosmos 967 Rocket 4.4 19:29:58 10° NNW 19:36:27 77° ENE 19:38:10 51° SE
BREEZE-M DEB (TANK) 3.2 19:38:39 10° NW 19:41:59 69° NNE 19:43:55 43° E
Cosmos 2123 Rocket 4.3 19:38:01 10° NNW 19:44:15 66° W 19:47:09 33° SSW
Cosmos 1300 Rocket 4.3 19:48:13 40° WSW 19:49:12 49° W 19:53:22 10° N
Cosmos 2058 4.2 19:49:58 10° N 19:52:10 30° NNE 19:52:10 30° NNE
COSMOS 2455 3.5 19:51:54 10° NNW 19:57:34 40° NE 19:58:10 39° ENE
BREEZE-M DEB (TANK) 4.4 19:54:42 10° WSW 19:59:14 68° NNW 20:17:57 10° ENE
SL-4 R/B 3.6 19:55:37 10° WSW 19:57:34 27° W 19:57:34 27° W
Cosmos 1535 Rocket 4.5 20:00:37 46° SSW 20:02:31 75° W 20:08:41 10° N
Cosmos 1605 Rocket 3.9 20:02:58 52° SSW 20:04:32 78° W 20:10:41 10° N
SJ 16-02 3.4 20:02:12 10° NNE 20:04:02 18° NE 20:04:02 18° NE
Gbstr 26 Del rocket 3.5 20:01:25 10° WSW 20:06:31 61° NNW 20:06:31 61° NNW
USA 59 Rocket 2.7 20:05:41 10° W 20:07:11 12° WSW 20:07:46 11° SW
Cosmos 1315 Rocket 4.3 20:08:55 34° NW 20:08:55 34° NW 20:11:33 10° N
SPOT 3 Rocket 3.6 20:08:17 73° WSW 20:08:20 73° WSW 20:13:31 10° NNW
Cosmos 2297 4.1 20:04:33 10° NNW 20:10:08 53° WSW 20:10:44 50° SW
Cosmos 2369 Rocket 2.9 20:09:10 10° NW 20:14:24 42° WSW 20:14:59 40° WSW
USA 234 4.4 20:11:45 10° NE 20:17:47 41° NNW 20:23:49 10° W
Lacrosse 5 rocket 4.0 20:19:15 10° N 20:19:32 11° N 20:19:32 11° N
Cosmos 1603 4.0 20:26:12 56° NNE 20:26:12 56° NNE 20:30:40 10° NNE
Cosmos 1943 4.2 20:23:24 20° WSW 20:27:01 44° WNW 20:32:26 10° NNE
Cosmos 921 Rocket 4.4 20:27:20 10° NNW 20:30:06 37° NW 20:30:06 37° NW
NOSS 3-1 (A) 4.1 20:24:36 10° NNW 20:31:59 76° NE 20:33:20 64° ESE
Cosmos 2100 Rocket 4.2 20:42:04 60° NE 20:42:04 60° NE 20:47:12 10° N
Ariane Rocket 4.5 20:57:13 30° WNW 20:57:13 30° WNW 21:00:53 10° NNW
BREEZE-M DEB (TANK) 4.4 20:53:57 10° WSW 21:11:20 76° NNW 21:16:39 10° ENE
ATLAS 5 CENTAUR R/B 3.7 21:09:15 10° NNW 21:11:03 25° NNW 21:11:03 25° NNW
Cosmos 1833 Rocket 4.5 21:19:39 22° NE 21:19:39 22° NE 21:21:42 10° NE
Cosmos 1725 Rocket 4.5 21:24:14 57° N 21:24:14 57° N 21:29:09 10° N
ATLAS 2AS CENTAUR R/B 3.4 21:38:07 46° NE 21:38:07 46° NE 21:42:46 10° NE
COSMOS 2455 4.4 21:38:01 10° NW 21:41:17 27° WNW 21:41:17 27° WNW
SJ 16-02 4.1 21:39:48 10° NW 21:40:32 14° NW 21:40:32 14° NW
SeaSat 1 4.3 21:56:42 26° NNW 21:56:42 26° NNW 21:58:51 10° NNW
ACS3 Solar Sail 4.1 22:00:08 10° ENE 22:01:13 12° ENE 22:01:13 12° ENE
Cosmos 1697 Rocket 4.0 22:02:07 10° NNW 22:05:24 36° N 22:05:24 36° N
Cosmos 1980 Rocket 3.6 22:22:55 10° NNW 22:26:39 35° NNE 22:26:39 35° NNE
ATLAS 3B R/B 3.1 22:48:46 10° NNW 22:55:41 69° N 22:55:41 69° N
Cosmos 1833 Rocket 4.5 23:01:17 24° NW 23:01:17 24° NW 23:05:03 10° N
Cosmos 2082 Rocket 3.5 23:02:51 36° NE 23:02:51 36° NE 23:06:12 10° NNE
CZ-2C R/B 4.4 23:29:08 24° NW 23:29:08 24° NW 23:31:29 10° NNW
SL-16 R/B 3.7 23:22:00 10° N 23:26:56 30° NE 23:27:50 28° ENE
ATLAS 2AS CENTAUR R/B 4.3 23:25:29 23° WNW 23:27:29 26° NW 23:33:07 10° NNE
Cosmos 2279 Rocket 4.5 23:43:05 55° ENE 23:43:05 55° ENE 23:48:31 10° NNE
ACS3 Solar Sail 2.1 23:39:48 10° NNE 23:44:46 62° NNE 23:44:46 62° NNE
IDEFIX/ARIANE 42P 3.7 23:42:43 10° NNE 23:46:20 38° ENE 23:46:20 38° ENE
ADEOS Rocket 4.4 23:43:12 10° NNE 23:50:21 41° E 23:52:01 37° ESE
